Change the Weather History Date:

Wednesday, June 11, 2014

  Actual Average Record
Temperature  
Mean Temperature 78 °F -  
Max Temperature 88 °F 89 °F 100 °F (1993)
Min Temperature 68 °F 67 °F 56 °F (1988)
Cooling Degree Days 12    
Growing Degree Days 28 (Base 50)    
Moisture  
Dew Point 72 °F    
Average Humidity 90    
Maximum Humidity 100    
Minimum Humidity 68    
Precipitation  
Precipitation 0.64 in - - ()
Sea Level Pressure  
Sea Level Pressure 29.92 in    
Wind  
Wind Speed 4 mph (SSE)    
Max Wind Speed 25 mph    
Max Gust Speed 32 mph    
Visibility 9 miles    
Events Fog , Rain , Thunderstorm    
Averages and records for this station are not official NWS values.
T = Trace of Precipitation, MM = Missing Value Source: NWS Daily Summary

Daily Weather History Graph

Daily Weather History Graph

Search for Another Location

Airport or City:

Trip Planner

Search our weather history database for the weather conditions in past years. The results will help you decide how hot, cold, wet, or windy it might be!

Date:

Astronomy

Jun. 11, 2014 Rise Set
Actual Time 6:19 AM EDT 8:32 PM EDT
Civil Twilight 5:51 AM EDT 9:00 PM EDT
Nautical Twilight 5:17 AM EDT 9:34 PM EDT
Astronomical Twilight 4:40 AM EDT 10:11 PM EDT
Moon 7:05 PM EDT (6/11) 5:01 AM EDT (6/11)
Length of Visible Light 15h 08m
Length of Day
14h 12m
Waxing Gibbous, 97% of the Moon is Illuminated
Jun 11
Waxing Gibbous
Jun 13
Full
Jun 19
Last Quarter
Jun 27
New
Jul 5
First Quarter

Hourly Weather History & Observations

Time (EDT) Temp. Heat Index Dew Point Humidity Pressure Visibility Wind Dir Wind Speed Gust Speed Precip Events Conditions
12:58 AM 74.8 °F - 68.5 °F 81% 29.97 in 10.0 mi South 2.3 mph - N/A   Clear
1:58 AM 73.0 °F - 68.0 °F 84% 29.97 in 10.0 mi South 3.5 mph - N/A   Mostly Cloudy
2:58 AM 71.4 °F - 68.2 °F 89% 29.97 in 10.0 mi NE 1.2 mph - N/A   Scattered Clouds
3:58 AM 68.7 °F - 68.4 °F 99% 29.95 in 10.0 mi Calm Calm - N/A   Overcast
4:58 AM 69.4 °F - 68.9 °F 98% 29.95 in 10.0 mi ESE 3.5 mph - N/A   Overcast
5:58 AM 68.5 °F - 68.5 °F 100% 29.95 in 10.0 mi Calm Calm - N/A   Overcast
6:58 AM 69.3 °F - 69.3 °F 100% 29.97 in 10.0 mi Calm Calm - N/A   Overcast
7:58 AM 71.1 °F - 70.9 °F 99% 29.97 in 10.0 mi SE 3.5 mph - N/A   Scattered Clouds
8:58 AM 74.8 °F - 71.2 °F 88% 29.98 in 10.0 mi South 4.6 mph - N/A   Clear
9:58 AM 80.1 °F 84.4 °F 73.4 °F 80% 29.98 in 10.0 mi Variable 4.6 mph - N/A   Scattered Clouds
10:58 AM 84.4 °F 92.4 °F 75.0 °F 73% 29.97 in 10.0 mi Variable 2.3 mph - N/A   Mostly Cloudy
11:58 AM 86.5 °F 96.4 °F 75.6 °F 70% 29.96 in 10.0 mi SSW 6.9 mph - N/A   Partly Cloudy
12:58 PM 87.3 °F 97.2 °F 75.6 °F 68% 29.94 in 10.0 mi SW 8.1 mph - N/A   Scattered Clouds
1:58 PM 86.7 °F 95.9 °F 75.0 °F 68% 29.90 in 10.0 mi South 5.8 mph - N/A Thunderstorm Mostly Cloudy
2:03 PM 86.0 °F 95.1 °F 75.2 °F 70% 29.89 in 10.0 mi SSE 6.9 mph - N/A Thunderstorm Thunderstorm
2:07 PM 86.0 °F 95.1 °F 75.2 °F 70% 29.89 in 4.0 mi SSW 8.1 mph - N/A Rain , Thunderstorm Heavy Thunderstorms and Rain
2:12 PM 84.2 °F 92.3 °F 75.2 °F 74% 29.90 in 1.0 mi SSW 18.4 mph 21.9 mph N/A Rain , Thunderstorm Heavy Thunderstorms and Rain
2:14 PM 80.6 °F 86.2 °F 75.2 °F 84% 29.91 in 0.5 mi South 25.3 mph 32.2 mph N/A Rain , Thunderstorm Heavy Thunderstorms and Rain
2:19 PM 77.0 °F - 73.4 °F 89% 29.91 in 0.5 mi SE 17.3 mph 32.2 mph N/A Fog , Rain , Thunderstorm Heavy Thunderstorms and Rain
2:24 PM 73.4 °F - 69.8 °F 88% 29.90 in 0.5 mi ESE 11.5 mph 32.2 mph N/A Fog , Rain , Thunderstorm Heavy Thunderstorms and Rain
2:29 PM 73.4 °F - 69.8 °F 88% 29.90 in 1.8 mi Variable 2.3 mph 24.2 mph N/A Rain , Thunderstorm Light Thunderstorms and Rain
2:31 PM 73.4 °F - 69.8 °F 88% 29.91 in 7.0 mi NE 4.6 mph - N/A Thunderstorm Thunderstorm
2:40 PM 71.6 °F - 69.8 °F 94% 29.92 in 10.0 mi Calm Calm - N/A Rain , Thunderstorm Light Thunderstorms and Rain
2:56 PM 73.4 °F - 71.6 °F 94% 29.91 in 10.0 mi SSE 4.6 mph - N/A Rain Light Rain
2:58 PM 72.9 °F - 71.6 °F 96% 29.92 in 10.0 mi SSE 3.5 mph - 0.61 in Rain Light Rain
3:10 PM 73.4 °F - 73.4 °F 100% 29.90 in 10.0 mi South 5.8 mph - N/A   Mostly Cloudy
3:58 PM 75.6 °F - 75.6 °F 100% 29.90 in 10.0 mi ESE 8.1 mph - 0.01 in   Scattered Clouds
4:58 PM 74.7 °F - 74.1 °F 98% 29.87 in 10.0 mi SE 5.8 mph - N/A   Mostly Cloudy
5:58 PM 77.7 °F - 74.8 °F 91% 29.88 in 10.0 mi SSE 9.2 mph - N/A   Clear
6:58 PM 76.8 °F - 74.1 °F 91% 29.89 in 10.0 mi SSE 5.8 mph - N/A   Mostly Cloudy
7:01 PM 77.0 °F - 73.4 °F 89% 29.88 in 10.0 mi South 5.8 mph - N/A Rain Light Rain
7:58 PM 74.1 °F - 74.1 °F 100% 29.89 in 10.0 mi SE 3.5 mph - 0.02 in Rain Light Rain
8:34 PM 73.4 °F - 73.4 °F 100% 29.87 in 10.0 mi SE 3.5 mph - N/A   Clear
8:58 PM 73.2 °F - 73.2 °F 100% 29.89 in 10.0 mi SSE 2.3 mph - 0.00 in   Partly Cloudy
9:24 PM 73.4 °F - 73.4 °F 100% 29.88 in 10.0 mi SE 4.6 mph - N/A   Light Drizzle
9:38 PM 73.4 °F - 73.4 °F 100% 29.88 in 10.0 mi SE 5.8 mph - N/A   Scattered Clouds
9:58 PM 72.9 °F - 72.9 °F 100% 29.89 in 10.0 mi Variable 3.5 mph - 0.00 in   Mostly Cloudy
10:58 PM 72.7 °F - 72.7 °F 100% 29.90 in 10.0 mi Calm Calm - N/A   Mostly Cloudy
11:08 PM 73.4 °F - 73.4 °F 100% 29.89 in 10.0 mi Calm Calm - N/A   Mostly Cloudy
11:43 PM 71.6 °F - 71.6 °F 100% 29.89 in 10.0 mi Calm Calm - N/A   Scattered Clouds
11:58 PM 72.1 °F - 72.1 °F 100% 29.89 in 10.0 mi SSE 2.3 mph - N/A   Scattered Clouds